STARLINK-53 (44294 NORAD) Tracking and Keplerian Element Data

This shows tracking and keplerian element data for the satellite.

Feedback or suggestion? Click here.




ElementValue
Catalog44294
NameSTARLINK-53
Epoch Orbit3803
Epoch Day23.25001157
Epoch Year2020
RAAN152.8069
Inclination52.998
Eccentricity0.0001451
Argument of Perigee65.9483
Mean Anonmoly293.4841
Mean Motion15.12040431
Decay Rate0.00315574
L11 44294U 19029BM 20023.25001157 .00315574 00000-0 17378-1 0 9994
L22 44294 52.9980 152.8069 0001451 65.9483 293.4841 15.12040431 38031

Live tracking and technical data element details for STARLINK-53 (NORAD 44294). STARLINK-53 can be tracked NOW for your location showing map with azimuth and elevation plus other details from your city location.

Track the satellite on the map from your city or location and see movement details for azimuth, elevation, latitude, longitude, range, height, and movement on the map or in text.







IsCatalogInMostPopularTable: catalog: 44294, numindb: 2068
Update: records affected: 1



GetName: 44294 STARLINK-53

Hit Count: updated at: Sun, 26 Jan 2020 18:08:06 GMT